• In Österreich
  • Länderverzeichnis
  • Für 7 Tage
  • Wassertemperatur
  • Satellitenkarten
  • Wetterkarte
  • News
  • Widgets
  • user-avatar
    Anmelden

    Stündliche Wetter Brzezina

    Heute, 22 Oktober, Montag

    Zeit Temperatur Niederschläge Wind Luftdruck Luftfeuchtigkeit
    00:00 +6°C° 0 mm 2 m/S 759 mmHg 80%
    01:00 +6°C° 0 mm 2 m/S 759 mmHg 81%
    02:00 +5°C° 0 mm 2 m/S 759 mmHg 82%
    03:00 +5°C° 0 mm 2 m/S 759 mmHg 83%
    04:00 +5°C° 0 mm 2 m/S 759 mmHg 84%
    05:00 +5°C° 0 mm 2 m/S 758 mmHg 85%
    06:00 +5°C° 0 mm 2 m/S 758 mmHg 85%
    07:00 +5°C° 0 mm 2 m/S 758 mmHg 85%
    08:00 +5°C° 0 mm 3 m/S 758 mmHg 78%
    09:00 +8°C° 0 mm 3 m/S 758 mmHg 72%
    10:00 +10°C° 0 mm 3 m/S 758 mmHg 65%
    11:00 +11°C° 0 mm 4 m/S 757 mmHg 61%
    12:00 +12°C° 0 mm 4 m/S 757 mmHg 58%
    13:00 +13°C° 0 mm 4 m/S 757 mmHg 54%
    14:00 +13°C° 0 mm 4 m/S 756 mmHg 58%
    15:00 +12°C° 0 mm 4 m/S 756 mmHg 62%
    16:00 +12°C° 0 mm 4 m/S 756 mmHg 67%
    17:00 +11°C° 0.3 mm 4 m/S 756 mmHg 72%
    18:00 +10°C° 0.3 mm 5 m/S 756 mmHg 77%
    19:00 +9°C° 0.3 mm 5 m/S 757 mmHg 81%
    20:00 +8°C° 0 mm 4 m/S 757 mmHg 81%
    21:00 +7°C° 0 mm 4 m/S 757 mmHg 80%
    22:00 +7°C° 0 mm 4 m/S 757 mmHg 80%
    23:00 +6°C° 0 mm 4 m/S 757 mmHg 82%

    Morgen, 23 Oktober, Dienstag

    Zeit Temperatur Niederschläge Wind Luftdruck Luftfeuchtigkeit
    00:00 +5°C° 0 mm 4 m/S 757 mmHg 84%
    01:00 +5°C° 0 mm 4 m/S 757 mmHg 86%
    02:00 +4°C° 0 mm 4 m/S 757 mmHg 85%
    03:00 +4°C° 0 mm 4 m/S 756 mmHg 84%
    04:00 +4°C° 0 mm 4 m/S 756 mmHg 83%
    05:00 +3°C° 0 mm 5 m/S 755 mmHg 81%
    06:00 +5°C° 0 mm 5 m/S 754 mmHg 79%
    07:00 +4°C° 0 mm 6 m/S 754 mmHg 77%
    08:00 +4°C° 0.5 mm 7 m/S 753 mmHg 76%
    09:00 +5°C° 0.5 mm 8 m/S 752 mmHg 75%
    10:00 +5°C° 0.5 mm 9 m/S 751 mmHg 74%
    11:00 +5°C° 1 mm 10 m/S 749 mmHg 76%
    12:00 +5°C° 1 mm 10 m/S 748 mmHg 77%
    13:00 +4°C° 1 mm 11 m/S 747 mmHg 79%
    14:00 +6°C° 0.5 mm 11 m/S 746 mmHg 79%
    15:00 +7°C° 0.5 mm 11 m/S 745 mmHg 79%
    16:00 +7°C° 0.5 mm 12 m/S 744 mmHg 80%
    17:00 +8°C° 1 mm 11 m/S 743 mmHg 81%
    18:00 +8°C° 1 mm 11 m/S 742 mmHg 83%
    19:00 +9°C° 1 mm 11 m/S 742 mmHg 85%
    20:00 +9°C° 1.3 mm 11 m/S 741 mmHg 84%
    21:00 +9°C° 1.3 mm 11 m/S 741 mmHg 84%
    22:00 +9°C° 1.3 mm 11 m/S 740 mmHg 83%
    23:00 +9°C° 1.3 mm 11 m/S 739 mmHg 82%

    übermorgen, 24 Oktober, Mittwoch

    Zeit Temperatur Niederschläge Wind Luftdruck Luftfeuchtigkeit
    00:00 +9°C° 1.3 mm 11 m/S 739 mmHg 82%
    01:00 +9°C° 1.3 mm 10 m/S 738 mmHg 81%
    02:00 +8°C° 0.6 mm 11 m/S 738 mmHg 76%
    03:00 +7°C° 0.6 mm 11 m/S 739 mmHg 72%
    04:00 +5°C° 0.6 mm 12 m/S 739 mmHg 67%
    05:00 +4°C° 0.1 mm 11 m/S 740 mmHg 65%
    06:00 +5°C° 0.1 mm 10 m/S 741 mmHg 63%
    07:00 +3°C° 0.1 mm 9 m/S 742 mmHg 61%
    08:00 +5°C° 0 mm 10 m/S 743 mmHg 56%
    09:00 +4°C° 0 mm 11 m/S 743 mmHg 50%
    10:00 +6°C° 0 mm 11 m/S 744 mmHg 45%
    11:00 +6°C° 0 mm 11 m/S 745 mmHg 44%
    12:00 +7°C° 0 mm 11 m/S 745 mmHg 43%
    13:00 +7°C° 0 mm 11 m/S 746 mmHg 41%
    14:00 +7°C° 0 mm 10 m/S 746 mmHg 42%
    15:00 +6°C° 0 mm 8 m/S 747 mmHg 43%
    16:00 +6°C° 0 mm 7 m/S 747 mmHg 44%
    17:00 +5°C° 0 mm 7 m/S 748 mmHg 47%
    18:00 +4°C° 0 mm 6 m/S 748 mmHg 50%
    19:00 +4°C° 0 mm 6 m/S 749 mmHg 53%
    20:00 +4°C° 0 mm 6 m/S 749 mmHg 57%
    21:00 +3°C° 0 mm 5 m/S 749 mmHg 62%
    22:00 +3°C° 0 mm 5 m/S 749 mmHg 66%
    23:00 +3°C° 0 mm 5 m/S 749 mmHg 68%

    25 Oktober, Donnerstag

    Zeit Temperatur Niederschläge Wind Luftdruck Luftfeuchtigkeit
    00:00 +3°C° 0 mm 5 m/S 749 mmHg 69%
    01:00 +4°C° 0 mm 4 m/S 748 mmHg 71%
    02:00 +4°C° 0 mm 4 m/S 748 mmHg 74%
    03:00 +5°C° 0 mm 5 m/S 747 mmHg 77%
    04:00 +5°C° 0 mm 5 m/S 746 mmHg 79%
    05:00 +5°C° 0.5 mm 6 m/S 746 mmHg 82%
    06:00 +8°C° 0.5 mm 7 m/S 745 mmHg 85%
    07:00 +9°C° 0.5 mm 8 m/S 744 mmHg 88%
    08:00 +8°C° 0.1 mm 9 m/S 744 mmHg 85%
    09:00 +8°C° 0.1 mm 9 m/S 743 mmHg 82%
    10:00 +8°C° 0.1 mm 10 m/S 743 mmHg 80%
    11:00 +9°C° 0.1 mm 10 m/S 743 mmHg 79%
    12:00 +9°C° 0.1 mm 10 m/S 743 mmHg 77%
    13:00 +9°C° 0.1 mm 10 m/S 743 mmHg 76%
    14:00 +10°C° 0.1 mm 9 m/S 744 mmHg 74%
    15:00 +8°C° 0.1 mm 9 m/S 744 mmHg 72%
    16:00 +9°C° 0.1 mm 8 m/S 745 mmHg 70%
    17:00 +8°C° 0 mm 7 m/S 745 mmHg 72%
    18:00 +8°C° 0 mm 7 m/S 745 mmHg 75%
    19:00 +7°C° 0 mm 6 m/S 746 mmHg 77%
    20:00 +7°C° 0 mm 6 m/S 746 mmHg 77%
    21:00 +7°C° 0 mm 5 m/S 746 mmHg 77%
    22:00 +7°C° 0 mm 5 m/S 747 mmHg 78%
    23:00 +7°C° 0 mm 5 m/S 747 mmHg 78%

    26 Oktober, Freitag

    Zeit Temperatur Niederschläge Wind Luftdruck Luftfeuchtigkeit
    00:00 +6°C° 0 mm 5 m/S 747 mmHg 79%
    01:00 +6°C° 0 mm 5 m/S 747 mmHg 80%
    02:00 +6°C° 0 mm 4 m/S 747 mmHg 81%
    03:00 +6°C° 0 mm 4 m/S 747 mmHg 82%
    04:00 +5°C° 0 mm 4 m/S 747 mmHg 83%
    05:00 +5°C° 0 mm 4 m/S 747 mmHg 85%
    06:00 +5°C° 0 mm 3 m/S 746 mmHg 87%
    07:00 +5°C° 0 mm 3 m/S 746 mmHg 88%
    08:00 +7°C° 0 mm 3 m/S 746 mmHg 84%
    09:00 +8°C° 0 mm 3 m/S 746 mmHg 79%
    10:00 +9°C° 0 mm 3 m/S 746 mmHg 74%
    11:00 +10°C° 0 mm 3 m/S 746 mmHg 73%
    12:00 +11°C° 0 mm 3 m/S 746 mmHg 71%
    13:00 +11°C° 0 mm 4 m/S 745 mmHg 70%
    14:00 +11°C° 0 mm 3 m/S 745 mmHg 72%
    15:00 +11°C° 0 mm 3 m/S 744 mmHg 75%
    16:00 +11°C° 0 mm 3 m/S 744 mmHg 77%
    17:00 +11°C° 0 mm 3 m/S 743 mmHg 77%
    18:00 +10°C° 0 mm 4 m/S 743 mmHg 77%
    19:00 +10°C° 0 mm 4 m/S 743 mmHg 77%
    20:00 +10°C° 0 mm 4 m/S 743 mmHg 77%
    21:00 +10°C° 0 mm 4 m/S 742 mmHg 77%
    22:00 +9°C° 0 mm 5 m/S 742 mmHg 77%
    23:00 +10°C° 0 mm 4 m/S 742 mmHg 77%

    27 Oktober, Samstag

    Zeit Temperatur Niederschläge Wind Luftdruck Luftfeuchtigkeit
    00:00 +10°C° 0 mm 4 m/S 741 mmHg 78%
    01:00 +10°C° 0 mm 4 m/S 741 mmHg 79%
    02:00 +9°C° 0 mm 3 m/S 741 mmHg 81%
    03:00 +9°C° 0 mm 3 m/S 741 mmHg 83%
    04:00 +8°C° 0 mm 2 m/S 741 mmHg 86%
    05:00 +8°C° 0 mm 2 m/S 741 mmHg 87%
    06:00 +8°C° 0 mm 2 m/S 740 mmHg 89%
    07:00 +7°C° 0 mm 2 m/S 740 mmHg 91%
    08:00 +8°C° 0 mm 2 m/S 740 mmHg 86%
    09:00 +9°C° 0 mm 2 m/S 740 mmHg 81%
    10:00 +11°C° 0 mm 1 m/S 740 mmHg 76%
    11:00 +12°C° 0.1 mm 1 m/S 740 mmHg 75%
    12:00 +12°C° 0.1 mm 1 m/S 739 mmHg 75%
    13:00 +12°C° 0.1 mm 1 m/S 739 mmHg 74%
    14:00 +12°C° 0.4 mm 1 m/S 738 mmHg 77%
    15:00 +10°C° 0.4 mm 2 m/S 738 mmHg 81%
    16:00 +10°C° 0.4 mm 3 m/S 738 mmHg 84%
    17:00 +9°C° 0.7 mm 3 m/S 737 mmHg 86%
    18:00 +8°C° 0.7 mm 4 m/S 737 mmHg 88%
    19:00 +8°C° 0.7 mm 4 m/S 737 mmHg 90%
    20:00 +7°C° 0.6 mm 4 m/S 737 mmHg 91%
    21:00 +7°C° 0.6 mm 4 m/S 737 mmHg 91%
    22:00 +7°C° 0.6 mm 4 m/S 737 mmHg 91%
    23:00 +7°C° 0.6 mm 5 m/S 736 mmHg 91%

    28 Oktober, Sonntag

    Zeit Temperatur Niederschläge Wind Luftdruck Luftfeuchtigkeit
    00:00 +7°C° 0.6 mm 5 m/S 736 mmHg 90%
    01:00 +6°C° 0.6 mm 5 m/S 736 mmHg 90%
    02:00 +6°C° 0.7 mm 5 m/S 736 mmHg 89%
    03:00 +6°C° 0.7 mm 5 m/S 737 mmHg 89%
    04:00 +4°C° 0.7 mm 6 m/S 737 mmHg 88%
    05:00 +5°C° 0.3 mm 5 m/S 738 mmHg 88%
    06:00 +5°C° 0.3 mm 5 m/S 738 mmHg 88%
    07:00 +5°C° 0.3 mm 4 m/S 739 mmHg 87%
    08:00 +5°C° 0.1 mm 4 m/S 740 mmHg 85%
    09:00 +6°C° 0.1 mm 4 m/S 741 mmHg 82%
    10:00 +6°C° 0.1 mm 4 m/S 742 mmHg 79%
    11:00 +7°C° 0 mm 4 m/S 743 mmHg 74%
    12:00 +8°C° 0 mm 4 m/S 744 mmHg 69%
    13:00 +9°C° 0 mm 3 m/S 744 mmHg 65%
    14:00 +9°C° 0 mm 3 m/S 745 mmHg 66%
    15:00 +9°C° 0 mm 2 m/S 745 mmHg 68%
    16:00 +9°C° 0 mm 1 m/S 746 mmHg 70%
    17:00 +9°C° 0 mm 1 m/S 746 mmHg 72%
    18:00 +8°C° 0 mm 1 m/S 747 mmHg 75%
    19:00 +8°C° 0 mm 1 m/S 747 mmHg 78%
    20:00 +7°C° 0 mm 1 m/S 748 mmHg 79%
    21:00 +7°C° 0 mm 1 m/S 748 mmHg 81%
    22:00 +6°C° 0 mm 1 m/S 748 mmHg 83%
    23:00 +6°C° 0 mm 1 m/S 749 mmHg 84%
    Mehr zeigen